This is the latest recevied weather packets stored in our database for station/object W8KJR. If no packets are shown the sender has not sent any weather packets the latest 10 day(s).
| Time | Temp. | Humidity | Pressure | Rain* | Wind** | Luminosity | Snow |
|---|---|---|---|---|---|---|---|
| 1777763536 | 8.89° C | 48% | 1016.2 hPa | 0 mm | - | - | - |
| 1777762634 | 8.89° C | 46% | 1016.2 hPa | 0 mm | - | - | - |
| 1777761731 | 8.89° C | 50% | 1016.3 hPa | 0 mm | - | - | - |
| 1777760830 | 8.33° C | 51% | 1016.3 hPa | 0 mm | - | - | - |
| 1777759925 | 8.89° C | 47% | 1016.2 hPa | 0 mm | - | - | - |
| 1777759020 | 8.89° C | 48% | 1016.3 hPa | 0 mm | - | - | - |
| 1777758118 | 8.33° C | 51% | 1016.3 hPa | 0 mm | - | - | - |
| 1777757216 | 8.89° C | 48% | 1016.1 hPa | 0 mm | - | - | - |
| 1777756313 | 9.44° C | 51% | 1016.1 hPa | 0 mm | - | - | - |
| 1777755410 | 8.89° C | 52% | 1016.1 hPa | 0 mm | - | - | - |
| 1777754507 | 9.44° C | 50% | 1016.3 hPa | 0 mm | - | - | - |
| 1777753602 | 9.44° C | 51% | 1016.3 hPa | 0 mm | - | - | - |
| 1777752700 | 9.44° C | 52% | 1016.3 hPa | 0 mm | - | - | - |
| 1777751797 | 8.89° C | 50% | 1016.5 hPa | 0 mm | - | - | - |
| 1777750892 | 8.89° C | 50% | 1016.7 hPa | 0 mm | - | - | - |
| 1777749993 | 9.44° C | 48% | 1016.9 hPa | 0 mm | - | - | - |
| 1777749091 | 9.44° C | 49% | 1016.7 hPa | 0 mm | - | - | - |
| 1777748186 | 8.89° C | 50% | 1017 hPa | 0 mm | - | - | - |
| 1777747287 | 8.89° C | 49% | 1017 hPa | 0 mm | - | - | - |
| 1777746387 | 9.44° C | 48% | 1017.1 hPa | 0 mm | - | - | - |
| 1777745484 | 9.44° C | 48% | 1017.1 hPa | 0 mm | - | - | - |
* Rain latest hour (hover to see other rain measurements)
** Current wind speed in m/s (hover to see current wind gust speed)